Temp
-16 -16 -16 -16 -16 -17 -17 -17 -17 -17 -17 -16 -16 -17 -17 -16 -16 -16 -16 -16 -16 -16 -16 -16 -16 -16 -16 -15 -15 -15 -15 -15 -15 -15 -15 -15 -15 -15 -15 -15 -15 -15
-16 -16 -16 -16 -16 -17 -17 -17 -17 -17 -17 -17 -16 -17 -17 -17 -16 -16 -16 -16 -16 -16 -16 -16 -16 -16 -16 -16 -16 -15 -15 -15 -15 -15 -15 -15 -15 -15 -15 -15 -16 -15
-16 -16 -16 -16 -16 -17 -17 -17 -17 -17 -17 -17 -17 -17 -17 -17 -17 -17 -16 -16 -16 -16 -16 -16 -16 -16 -16 -16 -16 -16 -16 -16 -16 -16 -16 -16 -16 -16 -16 -16 -16 -16
-17 -17 -17 -17 -17 -17 -17 -17 -17 -17 -17 -17 -17 -17 -17 -17 -17 -17 -17 -17 -17 -17 -17 -17 -16 -16 -16 -16 -16 -16 -16 -16 -16 -16 -16 -16 -16 -16 -16 -16 -16 -16
-17 -17 -17 -17 -17 -17 -17 -17 -17 -17 -17 -17 -17 -17 -17 -17 -17 -17 -17 -17 -17 -17 -17 -17 -17 -17 -17 -16 -16 -16 -16 -16 -16 -16 -16 -17 -17 -17 -17 -17 -17 -17
-17 -17 -17 -17 -17 -17 -17 -17 -17 -17 -17 -17 -17 -17 -17 -17 -17 -17 -17 -17 -17 -17 -17 -17 -17 -17 -17 -17 -17 -17 -17 -17 -17 -17 -17 -17 -17 -17 -17 -17 -17 -17
-17 -17 -17 -17 -17 -17 -17 -17 -17 -17 -17 -17 -17 -17 -17 -18 -18 -17 -17 -17 -17 -17 -18 -18 -18 -18 -17 -17 -17 -17 -17 -17 -17 -17 -17 -17 -17 -17 -17 -17 -17 -17
-17 -17 -17 -17 -17 -17 -17 -17 -17 -17 -17 -17 -17 -17 -17 -18 -18 -17 -17 -17 -17 -17 -18 -18 -18 -18 -17 -17 -17 -18 -18 -17 -17 -17 -17 -17 -17 -17 -17 -17 -17 -17
-17 -17 -17 -17 -17 -17 -17 -17 -17 -17 -17 -17 -17 -17 -17 -18 -18 -17 -17 -17 -18 -18 -18 -18 -18 -18 -18 -18 -18 -18 -18 -18 -18 -18 -17 -17 -17 -17 -17 -17 -17 -17
-18 -18 -18 -18 -17 -17 -17 -17 -17 -17 -17 -17 -17 -17 -17 -17 -18 -18 -17 -17 -18 -18 -18 -18 -18 -18 -18 -18 -18 -18 -18 -18 -18 -18 -18 -18 -18 -17 -17 -17 -18 -18
-18 -18 -18 -18 -18 -17 -17 -17 -17 -17 -17 -17 -17 -17 -18 -18 -17 -18 -17 -17 -18 -18 -18 -18 -18 -18 -18 -18 -18 -18 -18 -18 -18 -18 -18 -18 -18 -18 -18 -18 -18 -18
-18 -18 -18 -18 -18 -18 -18 -17 -17 -17 -17 -17 -17 -17 -18 -17 -17 -17 -18 -18 -18 -18 -18 -18 -18 -18 -18 -18 -18 -18 -18 -18 -18 -18 -18 -18 -18 -18 -18 -18 -18 -18
-18 -18 -18 -18 -18 -18 -18 -17 -17 -17 -17 -17 -17 -17 -17 -17 -17 -17 -18 -18 -18 -18 -18 -18 -18 -18 -18 -18 -18 -18 -18 -18 -18 -18 -18 -18 -18 -18 -18 -18 -18 -18
-18 -18 -18 -18 -18 -18 -18 -18 -18 -18 -18 -18 -17 -17 -17 -18 -18 -18 -18 -18 -18 -18 -18 -18 -18 -18 -18 -18 -18 -18 -18 -18 -18 -18 -18 -18 -18 -18 -18 -18 -18 -18
-18 -18 -18 -18 -18 -18 -18 -18 -18 -18 -18 -18 -18 -18 -18 -18 -18 -18 -18 -18 -18 -18 -18 -18 -18 -18 -18 -18 -18 -18 -18 -18 -18 -18 -18 -18 -18 -18 -18 -18 -18 -18
-18 -18 -18 -18 -18 -18 -18 -18 -18 -18 -18 -18 -18 -18 -18 -18 -18 -18 -18 -18 -18 -18 -18 -19 -19 -18 -18 -18 -18 -18 -18 -18 -19 -19 -19 -19 -18 -18 -18 -18 -18 -18
-18 -18 -18 -18 -18 -18 -18 -18 -18 -19 -18 -18 -18 -18 -18 -18 -18 -18 -18 -18 -19 -19 -19 -19 -19 -19 -19 -19 -19 -19 -19 -19 -19 -19 -19 -19 -19 -19 -19 -19 -19 -19
-19 -19 -19 -19 -19 -19 -19 -19 -19 -19 -19 -19 -19 -18 -18 -19 -18 -18 -19 -19 -19 -19 -19 -19 -19 -19 -19 -19 -19 -19 -19 -19 -19 -19 -19 -19 -19 -19 -19 -19 -19 -19
-19 -19 -19 -19 -19 -19 -19 -19 -19 -19 -19 -19 -19 -19 -19 -19 -19 -19 -19 -19 -20 -20 -20 -19 -19 -19 -19 -19 -19 -20 -20 -20 -20 -20 -20 -20 -19 -19 -19 -20 -20 -19
-19 -19 -19 -19 -20 -20 -20 -20 -20 -20 -19 -19 -19 -19 -19 -19 -19 -19 -19 -20 -20 -20 -20 -20 -20 -20 -20 -20 -20 -20 -20 -20 -20 -20 -20 -20 -20 -20 -20 -20 -20 -20
-20 -20 -20 -20 -20 -20 -20 -20 -20 -20 -20 -19 -19 -20 -20 -20 -20 -20 -20 -20 -21 -21 -21 -21 -21 -21 -20 -20 -20 -20 -20 -20 -20 -20 -20 -20 -20 -20 -20 -20 -20 -20
-20 -20 -20 -20 -20 -20 -21 -21 -21 -20 -20 -20 -20 -20 -20 -20 -21 -21 -21 -21 -21 -21 -21 -21 -21 -21 -21 -21 -21 -20 -20 -20 -20 -20 -21 -21 -21 -21 -21 -21 -20 -20
-20 -20 -20 -20 -20 -21 -21 -21 -21 -21 -21 -21 -21 -21 -21 -21 -21 -21 -21 -21 -21 -21 -21 -21 -21 -21 -21 -21 -21 -21 -21 -21 -21 -21 -21 -21 -21 -21 -21 -21 -21 -20
-21 -21 -21 -21 -21 -21 -21 -21 -21 -21 -21 -21 -21 -21 -21 -21 -21 -21 -21 -21 -21 -21 -21 -21 -21 -21 -21 -21 -21 -21 -21 -21 -21 -21 -21 -21 -21 -21 -21 -21 -21 -21
-21 -21 -21 -21 -21 -21 -21 -21 -21 -21 -21 -21 -21 -21 -21 -21 -21 -22 -22 -22 -22 -22 -22 -22 -22 -21 -21 -21 -21 -21 -21 -22 -22 -21 -21 -21 -21 -21 -21 -21 -21 -21
-21 -22 -22 -22 -21 -21 -21 -22 -22 -22 -21 -21 -21 -21 -21 -22 -22 -22 -22 -22 -22 -22 -22 -22 -22 -22 -22 -22 -22 -22 -22 -22 -22 -22 -22 -21 -21 -21 -21 -21 -21 -21
Height
5759 5759 5759 5760 5761 5761 5761 5761 5762 5762 5762 5761 5761 5760 5761 5761 5760 5760 5760 5760 5761 5761 5761 5762 5762 5762 5762 5762 5762 5762 5762 5762 5762 5762 5762 5762 5762 5762 5762 5762 5762 5762
5757 5757 5756 5757 5758 5758 5759 5759 5759 5759 5760 5759 5759 5759 5759 5759 5759 5759 5759 5759 5759 5759 5760 5761 5761 5761 5761 5761 5760 5760 5760 5760 5760 5760 5760 5760 5760 5760 5760 5761 5761 5761
5755 5755 5754 5755 5756 5756 5756 5756 5756 5757 5757 5757 5757 5757 5757 5757 5757 5757 5757 5757 5758 5758 5759 5759 5760 5760 5760 5759 5759 5759 5759 5759 5759 5759 5759 5759 5759 5759 5759 5759 5759 5759
5753 5753 5753 5753 5753 5753 5753 5753 5753 5754 5754 5755 5755 5755 5755 5755 5756 5756 5756 5756 5756 5757 5757 5758 5758 5758 5758 5758 5758 5757 5757 5757 5757 5757 5757 5757 5757 5757 5757 5757 5757 5757
5750 5750 5750 5751 5751 5751 5751 5751 5751 5751 5752 5752 5753 5753 5753 5754 5754 5754 5754 5754 5754 5755 5755 5755 5756 5756 5756 5756 5756 5756 5755 5755 5755 5754 5754 5754 5754 5755 5755 5755 5755 5755
5748 5748 5749 5749 5749 5749 5749 5749 5749 5749 5749 5750 5750 5750 5751 5751 5752 5752 5752 5752 5752 5752 5752 5753 5753 5753 5754 5754 5754 5754 5754 5753 5753 5752 5752 5752 5752 5752 5753 5753 5753 5753
5747 5747 5747 5748 5748 5748 5747 5747 5747 5747 5747 5748 5748 5748 5748 5749 5749 5750 5750 5750 5750 5750 5750 5750 5751 5751 5751 5751 5752 5752 5752 5752 5751 5751 5750 5750 5750 5750 5751 5751 5751 5751
5745 5745 5746 5746 5746 5746 5746 5746 5746 5746 5746 5746 5746 5746 5745 5746 5747 5747 5747 5748 5748 5748 5748 5749 5749 5749 5749 5749 5749 5749 5749 5749 5749 5749 5749 5749 5748 5748 5749 5749 5749 5749
5743 5743 5743 5744 5744 5744 5744 5744 5744 5744 5744 5744 5744 5744 5743 5743 5744 5745 5745 5745 5746 5746 5746 5746 5747 5747 5747 5747 5747 5747 5747 5746 5747 5747 5747 5747 5747 5747 5747 5747 5747 5747
5740 5740 5740 5741 5741 5742 5742 5742 5742 5742 5743 5742 5742 5742 5741 5741 5741 5742 5742 5743 5743 5744 5744 5744 5744 5744 5744 5744 5745 5745 5745 5744 5744 5744 5744 5744 5745 5745 5745 5745 5745 5745
5737 5737 5737 5738 5738 5739 5740 5740 5740 5740 5740 5740 5739 5739 5739 5739 5738 5739 5739 5740 5740 5741 5741 5741 5741 5741 5742 5742 5742 5742 5742 5742 5742 5742 5742 5742 5742 5742 5742 5742 5743 5743
5733 5733 5734 5734 5735 5736 5736 5737 5737 5737 5737 5737 5737 5737 5737 5737 5736 5736 5737 5737 5737 5737 5737 5738 5738 5738 5738 5739 5739 5739 5739 5739 5739 5739 5739 5739 5739 5739 5739 5740 5740 5740
5729 5730 5730 5731 5731 5732 5732 5733 5733 5734 5734 5734 5734 5734 5734 5734 5734 5734 5734 5734 5733 5734 5734 5734 5734 5734 5735 5735 5736 5736 5736 5736 5736 5736 5736 5736 5736 5736 5737 5737 5737 5738
5725 5726 5726 5727 5727 5728 5728 5729 5729 5730 5730 5730 5730 5731 5731 5731 5730 5731 5731 5730 5730 5730 5731 5731 5731 5731 5731 5731 5732 5733 5733 5733 5733 5733 5733 5733 5733 5734 5734 5734 5734 5735
5721 5721 5721 5722 5723 5724 5724 5724 5725 5726 5726 5726 5726 5726 5727 5727 5726 5726 5727 5727 5727 5727 5727 5727 5728 5728 5728 5728 5729 5729 5729 5729 5729 5730 5729 5730 5730 5730 5730 5730 5730 5731
5716 5716 5716 5717 5717 5718 5719 5719 5720 5720 5721 5721 5721 5721 5722 5722 5722 5722 5722 5723 5723 5723 5723 5723 5723 5724 5724 5725 5725 5725 5725 5725 5726 5726 5726 5726 5726 5726 5726 5726 5726 5726
5710 5710 5710 5711 5712 5713 5713 5714 5714 5714 5715 5715 5716 5716 5716 5717 5717 5717 5717 5718 5718 5718 5718 5718 5718 5719 5720 5720 5720 5721 5721 5721 5721 5721 5721 5721 5721 5721 5720 5720 5720 5720
5704 5704 5704 5705 5705 5706 5707 5707 5708 5708 5709 5710 5710 5711 5711 5712 5712 5712 5712 5713 5713 5713 5713 5713 5714 5714 5715 5715 5715 5716 5716 5716 5716 5716 5716 5716 5716 5715 5715 5715 5715 5715
5698 5698 5698 5698 5698 5699 5700 5700 5701 5702 5703 5703 5704 5705 5705 5706 5707 5707 5707 5707 5707 5707 5708 5708 5709 5709 5709 5710 5710 5710 5710 5710 5711 5710 5710 5710 5710 5710 5710 5710 5710 5710
5691 5691 5691 5692 5692 5692 5693 5694 5695 5696 5698 5699 5699 5699 5699 5701 5702 5702 5701 5701 5701 5702 5702 5703 5703 5703 5704 5705 5705 5705 5705 5705 5705 5705 5705 5705 5705 5705 5705 5705 5706 5706
5685 5685 5685 5685 5685 5685 5686 5687 5688 5690 5693 5694 5694 5693 5693 5694 5695 5695 5694 5695 5695 5696 5697 5697 5697 5698 5698 5699 5699 5700 5700 5700 5700 5700 5700 5700 5700 5700 5701 5701 5701 5701
5678 5679 5679 5679 5678 5678 5679 5680 5681 5683 5685 5686 5687 5686 5686 5687 5688 5688 5688 5689 5689 5690 5691 5691 5692 5693 5693 5693 5694 5694 5694 5694 5695 5695 5695 5695 5695 5695 5696 5696 5696 5696
5672 5673 5673 5673 5672 5672 5672 5673 5674 5675 5676 5677 5678 5679 5679 5680 5681 5681 5682 5683 5683 5684 5684 5685 5686 5687 5687 5688 5688 5688 5689 5689 5689 5689 5690 5690 5690 5690 5690 5690 5690 5690
5667 5667 5667 5667 5666 5666 5666 5667 5668 5668 5669 5671 5672 5672 5672 5673 5674 5674 5675 5676 5677 5677 5678 5679 5680 5680 5681 5681 5682 5682 5682 5683 5683 5683 5684 5684 5685 5685 5685 5685 5684 5684
5660 5660 5661 5661 5661 5660 5660 5661 5662 5662 5663 5665 5665 5666 5666 5667 5667 5668 5669 5670 5671 5671 5672 5672 5673 5673 5674 5674 5675 5675 5676 5676 5676 5677 5677 5678 5678 5679 5679 5678 5678 5677
5651 5652 5653 5654 5654 5654 5654 5654 5655 5656 5657 5658 5659 5659 5660 5660 5661 5662 5663 5663 5664 5665 5665 5666 5666 5666 5667 5668 5668 5669 5669 5670 5670 5671 5671 5672 5672 5672 5672 5672 5671 5671
Wind_Speed
21 22 21 19 18 18 18 19 18 17 17 17 16 15 15 14 14 13 13 13 14 15 16 16 17 19 20 21 22 22 22 22 22 21 20 20 19 19 19 18 18 17
16 16 15 16 17 19 21 22 20 18 18 17 15 15 14 13 13 13 13 13 13 14 15 16 17 18 19 20 21 21 21 21 20 19 19 19 18 18 18 17 17 17
9 10 11 12 15 18 20 21 19 19 19 18 17 16 15 15 14 13 13 13 14 14 15 16 16 17 18 19 19 20 20 20 19 19 18 18 18 18 17 17 16 16
8 10 10 11 13 16 18 18 18 19 19 18 18 18 17 16 16 14 14 14 14 14 15 17 18 18 18 19 19 20 20 20 19 18 18 17 17 17 17 17 16 16
9 9 10 11 12 14 15 16 15 15 15 16 17 17 17 18 17 15 14 13 13 14 15 17 18 19 20 20 20 20 20 20 19 18 17 16 16 16 16 16 16 16
9 10 10 11 13 13 13 14 12 11 12 15 16 16 17 17 15 13 12 11 11 12 13 15 17 18 19 20 20 20 19 19 18 18 17 16 15 15 15 15 15 15
11 11 11 12 13 13 13 13 13 12 13 15 17 18 19 17 15 14 13 13 13 13 12 13 15 17 17 18 18 18 17 17 17 17 16 15 15 15 15 15 15 14
12 13 13 13 14 15 15 15 15 15 15 16 18 20 20 19 17 16 15 16 16 15 15 15 16 17 18 18 17 16 16 15 15 15 15 14 14 14 14 15 15 15
12 13 13 14 15 15 16 16 16 16 16 17 19 20 21 21 19 17 16 16 17 17 17 17 17 18 18 19 18 18 17 15 14 14 14 15 15 15 15 15 15 15
12 11 12 14 16 16 15 15 16 16 17 18 20 21 21 20 19 17 16 16 17 18 18 17 18 19 19 19 19 18 17 16 16 16 16 17 17 17 17 17 17 17
14 13 14 15 16 17 17 17 18 17 17 19 21 21 19 19 19 18 17 19 19 19 19 18 19 20 20 20 20 19 19 18 19 19 19 19 18 19 19 20 20 19
18 18 18 18 18 19 20 20 21 20 19 19 20 20 18 19 20 20 20 22 21 18 18 18 18 19 21 21 21 21 20 20 21 22 21 20 19 19 19 20 21 22
23 23 23 23 23 23 23 23 24 23 21 21 21 22 23 24 24 23 23 23 22 19 19 19 19 19 20 21 21 21 20 21 22 22 21 20 20 20 20 21 22 23
28 28 28 27 27 27 26 26 26 26 26 25 25 26 28 28 27 26 24 24 23 22 22 23 23 22 22 23 22 22 22 22 23 23 23 23 23 22 22 23 24 25
31 31 31 31 30 30 30 30 30 29 29 30 29 28 29 30 30 28 26 25 24 23 23 25 25 26 27 27 26 26 26 27 28 29 30 30 29 29 29 30 30 29
35 35 34 35 35 34 34 34 33 33 32 32 31 31 30 30 31 30 28 28 26 25 25 27 27 29 29 29 30 30 31 32 34 35 35 35 34 33 33 34 34 34
39 39 39 39 39 38 38 37 36 36 35 34 34 34 33 32 33 33 32 31 30 29 29 30 31 32 33 34 35 35 35 35 36 37 37 36 35 35 34 34 34 34
43 43 43 42 42 41 41 40 39 38 38 37 36 35 35 35 36 36 34 33 32 32 33 33 34 35 37 37 37 36 36 36 36 36 35 34 33 33 33 33 33 33
43 43 43 43 43 42 41 40 40 39 39 39 38 38 38 37 37 38 37 37 37 36 36 36 36 37 38 38 37 36 35 35 35 34 34 33 33 33 32 32 32 32
42 43 42 41 41 42 42 41 41 40 39 38 38 38 39 38 38 38 40 40 39 38 37 36 36 37 37 37 36 36 35 35 35 34 34 34 34 33 33 33 33 33
44 43 40 39 38 38 39 40 40 39 39 39 38 39 40 40 40 42 43 42 40 38 36 35 36 36 37 37 37 37 38 38 37 36 36 36 36 35 35 34 34 34
45 42 40 38 36 35 35 36 36 37 38 40 40 41 43 44 44 45 45 44 41 39 36 35 36 37 38 39 39 40 40 40 40 39 38 38 38 38 37 37 36 36
44 43 42 40 36 34 35 35 35 36 37 38 39 41 43 44 43 43 43 42 41 39 37 37 37 38 39 40 41 41 41 41 41 40 39 40 40 40 40 40 39 39
47 46 46 44 41 39 38 39 39 39 38 37 37 38 39 41 42 42 42 41 41 40 39 40 41 42 43 43 44 44 43 43 42 42 41 41 41 42 42 42 42 42
54 52 50 48 48 46 44 43 42 42 42 42 40 39 39 40 41 42 42 42 42 43 44 44 45 45 46 46 46 45 44 44 44 43 43 42 42 42 42 43 44 45
59 57 55 53 53 53 51 49 48 47 47 47 47 47 46 46 46 46 46 47 48 49 49 49 48 47 46 46 45 45 44 44 44 44 43 42 42 41 43 45 47 48
Wind_Direction
266 268 265 261 261 262 268 277 277 270 269 270 262 254 257 264 271 278 281 279 275 272 271 271 272 272 271 269 267 265 263 262 262 262 262 263 263 264 264 264 263 263
266 270 266 259 259 262 269 276 273 265 265 267 257 250 254 261 268 275 280 281 280 275 272 270 269 270 269 268 266 264 263 263 262 263 263 264 265 266 266 267 267 267
268 270 269 262 261 262 267 271 267 262 262 256 250 250 255 262 269 275 279 281 281 279 277 274 271 270 269 268 267 266 265 265 265 266 266 267 268 269 270 271 271 272
264 262 264 266 266 264 262 263 262 261 256 249 250 254 256 262 269 274 281 283 280 280 282 280 278 274 271 269 267 266 265 264 265 266 267 269 271 273 274 275 275 275
261 258 262 266 271 270 263 260 261 258 251 250 258 259 256 262 267 273 280 280 277 278 281 281 280 277 274 271 268 266 264 263 263 264 267 270 274 277 279 280 280 279
267 266 267 266 271 272 263 255 255 259 259 262 267 267 265 268 269 270 270 266 265 271 276 278 278 276 274 272 270 268 266 265 264 264 265 268 271 275 278 280 281 281
267 267 268 265 264 262 254 250 254 263 267 268 270 270 271 271 269 267 263 257 257 261 266 271 272 270 268 266 266 266 267 267 267 265 265 265 266 269 272 274 275 277
263 265 266 264 261 257 255 257 263 267 267 267 268 270 272 271 270 267 262 260 259 259 261 265 265 263 261 259 258 257 259 262 265 268 268 266 266 267 269 270 270 272
258 262 263 264 263 262 261 263 267 271 271 268 267 269 272 273 272 268 263 262 263 263 262 262 259 258 258 256 253 251 251 252 257 264 268 269 269 267 266 266 266 267
253 260 265 266 264 262 262 265 271 276 277 271 265 264 268 272 271 265 259 259 262 263 263 259 254 253 254 253 251 248 247 248 256 265 268 269 269 268 265 262 262 264
252 261 267 269 266 262 261 266 275 282 283 275 264 258 258 263 264 261 258 261 265 267 265 259 253 250 248 246 246 246 248 255 263 267 267 268 268 269 267 263 261 261
258 263 267 269 268 265 265 270 276 282 284 275 263 255 253 257 261 261 260 262 266 267 262 258 256 253 249 247 246 249 254 261 265 264 263 265 267 270 270 266 263 261
265 267 269 270 269 268 268 271 274 278 279 273 264 260 261 265 265 260 256 256 260 261 258 259 261 258 254 252 251 253 256 258 259 259 259 261 265 269 271 269 266 264
271 273 273 274 273 272 271 271 272 274 275 273 270 267 266 267 266 260 254 253 258 260 259 259 258 255 254 254 255 258 259 257 256 257 261 266 269 271 272 270 268 265
273 274 274 275 274 273 272 272 272 271 271 271 271 269 265 263 262 258 251 250 256 260 259 257 256 254 254 254 255 257 260 262 263 262 264 268 271 273 273 271 269 266
271 271 272 272 272 272 272 272 272 271 269 267 266 266 263 258 256 253 248 248 254 257 255 254 254 253 253 253 255 258 262 265 266 265 265 269 272 274 273 271 269 266
270 270 271 271 270 270 270 270 270 270 269 267 264 263 259 254 252 251 249 250 253 254 253 254 255 256 257 257 259 262 264 265 265 265 267 270 272 273 272 269 267 265
270 271 271 270 270 270 270 269 269 267 266 265 263 260 257 254 251 250 249 251 254 256 258 259 259 260 261 262 263 264 264 264 264 265 266 267 268 267 266 265 265 264
269 270 269 269 268 269 269 268 268 267 265 264 262 258 255 253 252 253 253 255 258 261 263 263 261 261 261 262 264 265 265 265 265 266 266 266 265 263 263 264 265 266
272 271 269 268 268 268 268 267 267 267 266 266 263 258 254 252 253 256 257 258 261 263 263 262 261 260 260 260 261 262 262 264 265 266 265 264 263 262 263 265 267 269
274 272 269 268 268 268 268 266 265 263 262 260 257 255 254 254 254 255 257 260 262 263 261 259 258 258 258 258 258 258 259 260 262 263 262 261 260 261 262 265 268 271
271 269 268 268 267 265 265 264 263 262 259 257 254 253 254 255 255 256 258 261 262 262 259 256 255 256 256 256 256 257 258 260 261 262 262 261 260 261 263 266 269 274
267 267 268 266 264 262 261 260 259 259 258 258 257 256 256 256 257 257 258 259 260 259 257 255 255 254 255 256 257 258 260 262 262 263 264 264 264 265 266 268 272 277
265 266 265 263 259 257 258 257 256 256 256 256 257 258 257 256 256 257 257 257 256 257 258 260 259 258 257 257 258 260 262 263 264 265 266 266 267 268 270 271 273 277
266 265 263 260 257 255 256 257 258 259 259 257 256 255 253 252 253 256 257 257 257 259 262 263 263 261 260 260 261 261 262 263 264 265 265 266 268 270 271 273 275 279
265 263 261 258 256 255 256 258 260 260 261 260 258 256 254 254 255 257 258 259 260 261 263 264 263 262 262 261 260 260 261 262 263 264 265 267 269 271 275 277 279 281